Find Starlink 11258

NORAD ID: 62598 Int'l Des: 2025-008 Owner: SPXS Country: US Constellation: starlink operational
LEOCIRCULAR

Live Position

Loading 3D Globe...

About Starlink 11258

Description loading...

Upcoming Passes

Passes for default location (London). Set your location on the main map for personalized predictions.

Altitude History

Loading altitude history...

Two-Line Element Set

1 62598U 25008M 26123.23389667 .00146811 00000-0 11254-2 0 9999
2 62598 42.9997 157.2961 0001296 261.1504 98.9217 15.70884890 75862
Epoch: May 3, 2026 • Age: 20 hours

Current Status

Altitude 356.8 km
Velocity 7.70 km/s
Sub-Earth Point -8.49°S, 99.73°W
Launch Date Jan 13, 2025
Age 1.3 years
Type internet

Technical Details

Classification Payload
Mass 960.00 kg
Dry Mass 910.00 kg
Total Mass 960.00 kg
Length 0.30 m
Diameter 4.10 m
Span 29.00 m
Shape Box + pan
Manufacturer SPXS
Bus Type Starlink V2MD
Phase Status In Orbit
Owner/State SPXS/US

Most Searched